DMSP 5D-2 F13 DEB, 42281

Orbit data source: Space-Track

DMSP 5D-2 F13 DEB, 42281 is space debris in SSO originally from a launch on Fri, 24 Mar 1995 UTC launched from the Air Force Western Test Range (AFWTR). Debris objects in space refer to the collection of defunct objects orbiting the Earth. Examples of debris include non-operational satellites, rocket bodies, and fragments generated from explosions, collisions, or faulty payload assembly.

Loading next visibility...
Identifier
42281, 1995-015GX
Orbit
SSO
Country
Flag of USUS
Related business
Manufacturer
Unknown
Mission
Spacecraft
Bus & Motor
Unknown
Mass
Unknown
Launch date (UTC)
1995-03-24 (31 years ago)
Launch vehicle
Unknown
Launch site
Air Force Western Test Range (AFWTR)
Object type
Payload
Rocket body
Debris
Shape & HBR
Unknown shape, 0.1 m
Radar Cross Section
Small (<0.1 m²)

Expand to show TLE details & history
Last TLE update: 4 days ago

TLE from 4 days ago
0 DMSP 5D-2 F13 DEB
1 42281U 95015GX  25307.12983367  .00011198  00000-0  24555-2 0  9996
2 42281  98.5580   2.7012 0027811  23.6463 336.6007 14.57554089550800
Epoch: 2025-11-03T03:06Z
TLE epoch observation values (Epoch: 2025-11-03T03:06:57.629Z)
Latitude
0.00009°
Longitude
-86.67457°
Altitude
685.989 km
Speed
7.523 km/s
True Right ascension
00h 10m 48s
True Declination
0° 00' 00"
Sunlit
Object was in full shadow at epoch
Visualization orbit readout
Latitude
Unknown
Longitude
Unknown
Altitude
Unknown
Speed
Unknown
Apparent Right ascension
Unknown
Apparent Declination
Unknown
Sunlit
N/A
Visualization observer readout
Local Sidereal Time
22:49:51
Azimuth
Unknown
Elevation
Unknown
Doppler factor
Unknown
Orbital elements
Apogee altitude
717.864 km
Perigee altitude
678.504 km
Semi-major axis
7,076.321 km
Eccentricity
0.00278
Inclination
98.558°
RAAN
2.7012°
Arg. of periapsis
23.6463°
True anomaly
336.47373°
Mean anomaly
336.6007°
Eccentric anomaly
336.53726°
Mean motion
3.64613 °/min
Orbital period
98.73 mins
BSTAR
0.0024555
Loading maneuver chart data...
Computing Atmospheric mass density...

Documentation

Showing up to 5 results
|